Weather History for Metropolis, IL

Change the Weather History Date:

Thursday, December 8, 2011

  Actual Average (KPAH) Record (KPAH)
Temperature  
Mean Temperature 35 °F 39 °F  
Max Temperature 44 °F 48 °F 70 °F (1966)
Min Temperature 26 °F 30 °F 10 °F (2006)
Degree Days  
Heating Degree Days 30 26  
Month to date heating degree days 197  
Since 1 July heating degree days 974  
Cooling Degree Days 0 0  
Month to date cooling degree days 0  
Year to date cooling degree days 1542  
Moisture  
Dew Point 30 °F    
Average Humidity 81    
Maximum Humidity 100    
Minimum Humidity 53    
Precipitation  
Precipitation 0.00 in 0.16 in 1.89 in (1972)
Month to date precipitation 1.25  
Year to date precipitation 45.74  
Snow  
Snow 0.00 in 0.10 in 2.30 in (1995)
Month to date snowfall 0.4  
Since 1 July snowfall 0.5  
Snow Depth -    
Sea Level Pressure  
Sea Level Pressure 30.27 in    
Wind  
Wind Speed 3 mph (SSW)    
Max Wind Speed 13 mph    
Max Gust Speed -    
Visibility 8 miles    
Events      
T = Trace of Precipitation, MM = Missing Value Source: NWS Daily Summary

Daily Weather History Graph

Daily Weather History Graph

Search for Another Location

Airport:

Trip Planner

Search our weather history database for the weather conditions in past years. The results will help you decide how hot, cold, wet, or windy it might be!

Date:

Astronomy

Dec. 08, 2011 Rise Set
Actual Time 6:56 AM CST 4:37 PM CST
Civil Twilight 6:27 AM CST 5:06 PM CST
Nautical Twilight 5:54 AM CST 5:38 PM CST
Astronomical Twilight 5:23 AM CST 6:10 PM CST
Moon 3:16 PM CST (12/8) 5:08 AM CST (12/8)
Length of Visible Light 10h 39m
Length of Day
9h 41m
Waxing Gibbous, 97% of the Moon is Illuminated
Dec 8
Waxing Gibbous
Dec 10
Full
Dec 17
Last Quarter
Dec 24
New
Jan 1
First Quarter

Hourly Weather History & Observations

Time (CST) Temp. Windchill Dew Point Humidity Pressure Visibility Wind Dir Wind Speed Gust Speed Precip Events Conditions
12:15 AM 32.0 °F 27.5 °F 30.2 °F 93% 30.26 in 10.0 mi WSW 4.6 mph - N/A   Clear
12:35 AM 32.0 °F 27.5 °F 30.2 °F 93% 30.26 in 10.0 mi SW 4.6 mph - N/A   Clear
12:55 AM 32.0 °F 26.4 °F 30.2 °F 93% 30.27 in 10.0 mi SW 5.8 mph - N/A   Clear
1:15 AM 32.0 °F 27.5 °F 30.2 °F 93% 30.26 in 10.0 mi SW 4.6 mph - N/A   Clear
1:35 AM 32.0 °F - 30.2 °F 93% 30.26 in 10.0 mi Calm Calm - N/A   Clear
1:55 AM 30.2 °F - 28.4 °F 93% 30.26 in 10.0 mi Calm Calm - N/A   Clear
2:15 AM 32.0 °F - 28.4 °F 87% 30.27 in 10.0 mi Calm Calm - N/A   Clear
2:35 AM 30.2 °F - 28.4 °F 93% 30.27 in 10.0 mi Calm Calm - N/A   Clear
2:55 AM 30.2 °F - 28.4 °F 93% 30.27 in 7.0 mi Calm Calm - N/A   Clear
3:15 AM 30.2 °F - 28.4 °F 93% 30.27 in 7.0 mi Calm Calm - N/A   Clear
3:35 AM 30.2 °F - 28.4 °F 93% 30.27 in 5.0 mi Calm Calm - N/A   Clear
3:55 AM 28.4 °F - 28.4 °F 100% 30.26 in 4.0 mi Calm Calm - N/A   Clear
4:15 AM 28.4 °F - 28.4 °F 100% 30.26 in 4.0 mi Calm Calm - N/A   Clear
4:35 AM 28.4 °F - 28.4 °F 100% 30.26 in 3.0 mi Calm Calm - N/A   Clear
4:55 AM 28.4 °F - 28.4 °F 100% 30.26 in 2.0 mi Calm Calm - N/A   Clear
5:15 AM 28.4 °F - 28.4 °F 100% 30.27 in 2.0 mi Calm Calm - N/A   Clear
5:55 AM 28.4 °F - 28.4 °F 100% 30.27 in 2.5 mi Calm Calm - N/A   Clear
6:15 AM 26.6 °F - 26.6 °F 100% 30.28 in 2.5 mi Calm Calm - N/A   Clear
6:55 AM 26.6 °F - 26.6 °F 100% 30.30 in 3.0 mi Calm Calm - N/A   Clear
7:15 AM 28.4 °F - 28.4 °F 100% 30.31 in 3.0 mi Calm Calm - N/A   Clear
7:35 AM 28.4 °F - 26.6 °F 93% 30.31 in 4.0 mi Calm Calm - N/A   Clear
7:55 AM 30.2 °F - 30.2 °F 100% 30.31 in 5.0 mi Calm Calm - N/A   Clear
8:15 AM 32.0 °F - 32.0 °F 100% 30.32 in 5.0 mi Calm Calm - N/A   Clear
8:35 AM 32.0 °F - 32.0 °F 100% 30.33 in 7.0 mi Calm Calm - N/A   Clear
8:55 AM 33.8 °F 30.8 °F 32.0 °F 93% 30.34 in 7.0 mi SW 3.5 mph - N/A   Clear
9:15 AM 35.6 °F 29.9 °F 32.0 °F 87% 30.34 in 10.0 mi SSW 6.9 mph - N/A   Clear
9:35 AM 35.6 °F 30.7 °F 32.0 °F 87% 30.35 in 10.0 mi SW 5.8 mph - N/A   Clear
9:55 AM 37.4 °F 33.8 °F 32.0 °F 81% 30.34 in 10.0 mi South 4.6 mph - N/A   Clear
10:15 AM 39.2 °F 35.0 °F 32.0 °F 75% 30.34 in 10.0 mi South 5.8 mph - N/A   Clear
10:35 AM 41.0 °F 36.4 °F 32.0 °F 70% 30.34 in 10.0 mi South 6.9 mph - N/A   Clear
10:55 AM 41.0 °F 35.2 °F 30.2 °F 65% 30.33 in 10.0 mi South 9.2 mph - N/A   Clear
11:15 AM 41.0 °F 35.2 °F 30.2 °F 65% 30.32 in 10.0 mi SSW 9.2 mph - N/A   Clear
11:35 AM 41.0 °F 35.8 °F 30.2 °F 65% 30.31 in 10.0 mi South 8.1 mph - N/A   Clear
11:55 AM 41.0 °F 35.8 °F 30.2 °F 65% 30.30 in 10.0 mi South 8.1 mph - N/A   Clear
12:15 PM 42.8 °F 37.5 °F 30.2 °F 61% 30.29 in 10.0 mi South 9.2 mph - N/A   Clear
12:35 PM 42.8 °F 38.6 °F 28.4 °F 57% 30.27 in 10.0 mi South 6.9 mph - N/A   Clear
12:55 PM 42.8 °F 36.6 °F 28.4 °F 57% 30.27 in 10.0 mi South 11.5 mph - N/A   Clear
1:15 PM 44.6 °F 38.8 °F 28.4 °F 53% 30.25 in 10.0 mi South 11.5 mph - N/A   Clear
1:35 PM 44.6 °F 38.4 °F 28.4 °F 53% 30.25 in 10.0 mi South 12.7 mph - N/A   Clear
1:55 PM 42.8 °F 36.6 °F 30.2 °F 61% 30.24 in 10.0 mi SSW 11.5 mph - N/A   Clear
2:15 PM 42.8 °F 37.5 °F 30.2 °F 61% 30.24 in 10.0 mi South 9.2 mph - N/A   Clear
2:35 PM 42.8 °F 38.6 °F 30.2 °F 61% 30.24 in 10.0 mi South 6.9 mph - N/A   Clear
2:55 PM 42.8 °F 38.0 °F 30.2 °F 61% 30.24 in 10.0 mi South 8.1 mph - N/A   Clear
3:15 PM 42.8 °F 38.6 °F 30.2 °F 61% 30.23 in 10.0 mi SSW 6.9 mph - N/A   Clear
3:35 PM 42.8 °F 39.3 °F 30.2 °F 61% 30.23 in 10.0 mi SW 5.8 mph - N/A   Clear
3:55 PM 42.8 °F 41.1 °F 30.2 °F 61% 30.23 in 10.0 mi WSW 3.5 mph - N/A   Clear
4:15 PM 42.8 °F 41.1 °F 30.2 °F 61% 30.23 in 10.0 mi WSW 3.5 mph - N/A   Clear
4:35 PM 41.0 °F 38.0 °F 30.2 °F 65% 30.23 in 10.0 mi SW 4.6 mph - N/A   Clear
5:35 PM 37.4 °F - 30.2 °F 75% 30.23 in 10.0 mi Calm Calm - N/A   Clear
6:15 PM 33.8 °F - 30.2 °F 87% 30.23 in 10.0 mi Calm Calm - N/A   Clear
6:35 PM 33.8 °F - 30.2 °F 87% 30.23 in 10.0 mi Calm Calm - N/A   Clear
6:55 PM 35.6 °F - 30.2 °F 81% 30.22 in 10.0 mi Calm Calm - N/A   Clear
7:15 PM 33.8 °F - 30.2 °F 87% 30.23 in 10.0 mi Calm Calm - N/A   Clear
7:35 PM 33.8 °F - 30.2 °F 87% 30.23 in 10.0 mi Calm Calm - N/A   Clear
7:55 PM 37.4 °F - 28.4 °F 70% 30.23 in 10.0 mi Calm Calm - N/A   Clear
8:15 PM 35.6 °F 31.7 °F 28.4 °F 75% 30.23 in 10.0 mi South 4.6 mph - N/A   Clear
8:35 PM 35.6 °F 32.8 °F 28.4 °F 75% 30.23 in 10.0 mi SSW 3.5 mph - N/A   Clear
8:55 PM 35.6 °F 32.8 °F 28.4 °F 75% 30.23 in 10.0 mi South 3.5 mph - N/A   Clear
9:15 PM 35.6 °F - 28.4 °F 75% 30.23 in 10.0 mi Calm Calm - N/A   Clear
9:35 PM 35.6 °F - 28.4 °F 75% 30.23 in 10.0 mi Calm Calm - N/A   Clear
9:55 PM 32.0 °F - 28.4 °F 87% 30.23 in 10.0 mi Calm Calm - N/A   Clear
10:15 PM 32.0 °F - 28.4 °F 87% 30.23 in 10.0 mi Calm Calm - N/A   Clear
10:35 PM 32.0 °F - 28.4 °F 87% 30.24 in 10.0 mi Calm Calm - N/A   Clear
10:55 PM 30.2 °F - 28.4 °F 93% 30.24 in 10.0 mi Calm Calm - N/A   Clear
11:15 PM 32.0 °F - 28.4 °F 87% 30.24 in 10.0 mi Calm Calm - N/A   Clear
11:35 PM 30.2 °F - 28.4 °F 93% 30.24 in 10.0 mi Calm Calm - N/A   Clear
11:55 PM 30.2 °F - 28.4 °F 93% 30.24 in 10.0 mi Calm Calm - N/A   Clear